Stations météo

réclame
Mon MeteoGroup
Freiburg, Allemagne (10803): Température de l'air & dewpoint: 02.07.2020 09:00:00 - 08.07.2020 09:00:00 (CEST)Freiburg, Allemagne (10803): Température de l'air 5cm & Température de l'air -5cm: 02.07.2020 09:00:00 - 08.07.2020 09:00:00 (CEST)Freiburg, Allemagne (10803): Température de l'air -20cm & Température de l'air -100cm: 02.07.2020 09:00:00 - 08.07.2020 09:00:00 (CEST)Freiburg, Allemagne (10803): Vitesse du vent & gusts: 02.07.2020 09:00:00 - 08.07.2020 09:00:00 (CEST)Freiburg, Allemagne (10803): Direction du vent: 02.07.2020 09:00:00 - 08.07.2020 09:00:00 (CEST)Freiburg, Allemagne (10803): reduced air pressure: 02.07.2020 09:00:00 - 08.07.2020 09:00:00 (CEST)Freiburg, Allemagne (10803): visibility: 02.07.2020 09:00:00 - 08.07.2020 09:00:00 (CEST)Freiburg, Allemagne (10803): Ensoleillement: 02.07.2020 09:00:00 - 08.07.2020 09:00:00 (CEST)Freiburg, Allemagne (10803): Quantités de précipitations: 02.07.2020 09:00:00 - 08.07.2020 09:00:00 (CEST)
Date & Time tt [°C] td [°C] tt 5cm [°C] tt -5cm [°C] tt -20cm [°C] tt -100cm [°C] ff [km/h] ff [knt] fx [km/h] fx [knt] dd ppp [hPa] vv [km] sd [min] rr [mm]
08.07.2020 09:00:00 18,5 7,9 24,1 20,9 21,3 19,4 4 2 9 5 WSW 1018,2 50 60 0,0
08.07.2020 08:00:00 15,9 8,8 18,6 18,2 21,6 19,4 2 1 7 4 N 1018,6 60 60 0,0
08.07.2020 07:00:00 12,0 8,6 13,4 16,6 22,0 19,4 3 2 5 3 NNW 1018,9 51 25 0,0
08.07.2020 06:00:00 9,4 7,8 7,7 16,6 22,4 19,4 4 2 5 3 N 1019,2 44 0 0,0
08.07.2020 05:00:00 10,1 8,6 7,1 17,2 22,9 19,4 2 1 6 3 NNW 1018,9 44 0 0,0
08.07.2020 04:00:00 10,7 8,4 7,6 17,9 23,4 19,4 2 1 4 2 NNE 1019,0 54 0 0,0
08.07.2020 03:00:00 11,5 8,9 8,2 18,8 23,9 19,4 0 0 11 6 N 1019,1 58 0 0,0
08.07.2020 02:00:00 12,5 8,9 10,1 19,6 24,4 19,4 8 4 12 7 NNW 1019,1 59 0 0,0
08.07.2020 01:00:00 13,5 9,0 10,3 20,6 25,0 19,4 4 2 8 4 N 1019,2 58 0 0,0
08.07.2020 00:00:00 14,6 9,5 11,2 21,8 25,5 19,4 3 2 6 3 SSE 1019,0 66 0 0,0
07.07.2020 23:00:00 16,4 9,4 13,2 23,1 25,9 19,4 0 0 5 3 N 1018,8 70 0 0,0
07.07.2020 22:00:00 18,2 8,4 13,7 24,8 26,3 19,4 5 3 8 4 NNW 1018,4 70 0 0,0
07.07.2020 21:00:00 20,9 7,9 18,8 27,2 26,5 19,4 5 3 14 8 N 1017,7 63 39 0,0
07.07.2020 20:00:00 22,6 6,4 23,7 29,5 26,5 19,4 9 5 18 10 NNW 1017,5 70 60 0,0
07.07.2020 19:00:00 23,1 5,5 26,2 31,6 26,3 19,4 11 6 20 11 NNW 1017,4 67 60 0,0
07.07.2020 18:00:00 23,4 4,7 28,2 33,2 25,9 19,4 9 5 24 13 NW 1017,8 50 60 0,0
07.07.2020 17:00:00 23,0 3,8 28,4 34,1 25,2 19,4 12 6 22 12 NNW 1018,4 40 60 0,0
07.07.2020 16:00:00 22,0 4,4 27,2 34,0 24,5 19,4 8 5 23 13 NW 1018,8 46 60 0,0
07.07.2020 15:00:00 22,6 5,6 29,9 33,6 23,6 19,4 17 9 27 15 WNW 1019,2 28 60 0,0
07.07.2020 14:00:00 22,0 5,3 29,1 32,5 22,8 19,3 10 5 22 12 NNE 1019,7 62 60 0,0
07.07.2020 13:00:00 20,8 5,5 29,6 30,9 21,9 19,3 8 4 21 12 N 1019,8 40 60 0,0
07.07.2020 12:00:00 20,3 6,7 27,7 28,4 21,2 19,3 11 6 20 11 NNW 1020,2 43 60 0,0
07.07.2020 11:00:00 19,6 8,6 26,8 25,5 20,7 19,3 9 5 16 9 NNW 1020,5 32 60 0,0
07.07.2020 10:00:00 16,9 8,0 22,6 22,2 20,4 19,3 6 3 13 7 NNW 1021,1 56 60 0,0
07.07.2020 09:00:00 14,9 7,1 21,2 19,1 20,4 19,3 6 4 9 5 NNW 1021,5 41 60 0,0
07.07.2020 08:00:00 12,9 8,0 17,3 16,4 20,7 19,3 4 2 9 5 NNW 1022,3 48 60 0,0
07.07.2020 07:00:00 9,8 7,2 11,3 14,8 21,1 19,3 4 2 6 3 NNW 1022,7 44 22 0,0
07.07.2020 06:00:00 8,0 6,7 5,3 14,9 21,5 19,3 3 2 4 2 NNW 1022,9 41 0 0,0
07.07.2020 05:00:00 8,2 6,8 5,7 15,4 22,0 19,3 0 0 4 2 N 1023,0 42 0 0,0
07.07.2020 04:00:00 9,1 7,2 6,3 16,1 22,5 19,3 3 2 5 3 NNW 1022,9 49 0 0,0
07.07.2020 03:00:00 9,2 6,8 6,1 16,8 23,1 19,3 4 2 5 3 NNE 1022,8 45 0 0,0
07.07.2020 02:00:00 10,1 7,5 6,5 17,6 23,6 19,3 4 2 8 5 NNW 1022,7 47 0 0,0
07.07.2020 01:00:00 11,3 8,2 7,8 18,6 24,1 19,2 0 0 5 3 N 1022,5 49 0 0,0
07.07.2020 00:00:00 12,3 8,3 8,7 19,7 24,7 19,2 3 1 7 4 WNW 1022,5 52 0 0,0
06.07.2020 23:00:00 14,5 7,5 9,3 20,9 25,2 19,2 2 1 5 3 ENE 1022,2 60 0 0,0
06.07.2020 22:00:00 16,1 6,5 11,1 22,7 25,6 19,2 5 3 14 7 N 1021,7 59 0 0,0
06.07.2020 21:00:00 18,4 5,4 17,2 24,9 25,8 19,2 12 6 25 13 NNW 1020,8 70 39 0,0
06.07.2020 20:00:00 20,2 4,4 20,9 27,2 25,9 19,2 14 8 31 17 NW 1020,3 65 60 0,0
06.07.2020 19:00:00 20,8 4,9 23,3 29,3 25,7 19,2 23 13 37 20 NNW 1019,8 25 60 0,0
06.07.2020 18:00:00 21,8 6,3 27,4 30,2 25,4 19,2 20 11 40 21 NNW 1019,2 30 56 0,0
06.07.2020 17:00:00 20,5 6,1 23,3 30,7 25,0 19,2 21 11 38 21 NNW 1018,7 59 50 0,0
06.07.2020 16:00:00 21,2 6,4 26,9 31,2 24,4 19,2 20 11 41 22 NNW 1018,4 27 60 0,0
06.07.2020 15:00:00 21,8 7,8 27,5 30,2 23,9 19,1 26 14 44 24 NNW 1017,9 41 48 0,0
06.07.2020 14:00:00 20,5 11,5 24,2 28,9 23,5 19,1 14 8 27 14 N 1017,6 56 28 0,0
06.07.2020 13:00:00 19,7 12,0 24,1 27,7 23,2 19,1 10 5 17 9 S 1017,8 41 49 0,0
06.07.2020 12:00:00 17,5 11,9 18,3 23,9 23,2 19,1 8 4 16 8 SSE 1018,3 57 8 0,0
06.07.2020 11:00:00 16,7 12,4 16,5 21,7 23,3 19,1 5 3 11 6 NNE 1018,2 55 0 0,0
06.07.2020 10:00:00 16,2 13,2 16,0 21,1 23,5 19,1 7 4 16 8 NE 1018,0 39 0 0,0
06.07.2020 09:00:00 16,5 14,3 16,5 21,6 23,8 19,1 6 3 13 7 NNE 1017,6 35 0 0,0
06.07.2020 08:00:00 16,4 14,8 16,1 21,1 24,0 19,1 10 5 30 16 N 1017,2 24 0 0,9
06.07.2020 07:00:00 17,4 15,9 17,0 22,0 24,3 19,1 17 9 30 16 NNW 1016,0 6 0 1,0
06.07.2020 06:00:00 20,6 15,7 20,3 22,5 24,5 19,1 9 5 37 20 W 1014,9 51 0 0,0
06.07.2020 05:00:00 22,1 15,4 21,7 22,5 24,8 19,0 23 12 38 20 SW 1014,4 62 0 0,0
06.07.2020 04:00:00 22,4 15,1 21,4 22,6 25,2 19,0 19 11 32 17 SSW 1014,7 59 0 0,0
06.07.2020 03:00:00 22,6 14,8 21,6 23,0 25,5 19,0 22 12 35 19 SSW 1015,2 55 0 0,0
06.07.2020 02:00:00 22,7 14,8 21,5 23,6 25,9 19,0 16 8 31 17 SSW 1015,4 57 0 0,0
06.07.2020 01:00:00 23,8 15,4 22,8 24,4 26,2 19,0 15 8 26 14 SSW 1015,4 61 0 0,0
06.07.2020 00:00:00 23,9 15,3 22,5 25,0 26,6 19,0 16 8 25 14 SW 1015,4 55 0 0,0
05.07.2020 23:00:00 25,0 15,2 23,7 25,9 27,0 19,0 14 7 24 13 SSW 1015,2 52 0 0,0
05.07.2020 22:00:00 24,9 15,5 23,3 27,1 27,3 19,0 14 7 22 12 SW 1015,1 56 0 0,0
05.07.2020 21:00:00 26,2 15,1 25,1 29,0 27,4 19,0 16 9 35 19 SW 1014,8 53 41 0,0
05.07.2020 20:00:00 27,1 15,1 27,4 31,0 27,4 19,0 23 13 37 20 SW 1015,0 22 60 0,0
05.07.2020 19:00:00 27,8 15,0 29,4 32,8 27,2 19,0 21 12 34 19 SSW 1015,2 23 60 0,0
05.07.2020 18:00:00 27,6 14,7 30,5 34,0 26,8 19,0 22 12 39 21 SW 1015,8 21 59 0,0
05.07.2020 17:00:00 27,1 15,0 31,2 34,6 26,3 19,0 27 15 42 23 WSW 1016,2 19 58 0,0
05.07.2020 16:00:00 27,2 15,5 32,8 34,1 25,8 19,0 26 14 42 23 WSW 1016,5 20 39 0,0
05.07.2020 15:00:00 26,6 15,3 30,2 34,5 25,1 19,0 26 14 42 23 SW 1016,8 21 59 0,0
05.07.2020 14:00:00 26,7 15,6 30,8 33,3 24,4 18,9 30 16 45 24 SW 1017,4 15 60 0,0
05.07.2020 13:00:00 25,3 15,9 29,9 31,6 23,8 18,9 29 16 46 25 SW 1017,9 22 59 0,0
05.07.2020 12:00:00 24,0 15,7 28,9 29,4 23,4 18,9 24 13 39 21 SW 1018,6 24 60 0,0
05.07.2020 11:00:00 23,1 16,0 27,2 26,1 23,1 18,9 25 13 43 23 SW 1018,9 24 15 0,0
05.07.2020 10:00:00 21,4 14,8 23,0 25,4 23,0 18,9 26 14 45 25 SW 1019,3 24 37 0,0
05.07.2020 09:00:00 21,9 13,5 24,2 24,1 22,9 18,9 26 14 42 23 SSW 1018,9 17 60 0,0
05.07.2020 08:00:00 21,4 12,7 22,7 22,0 23,1 18,9 23 12 37 20 SW 1018,7 41 22 0,0
05.07.2020 07:00:00 21,3 12,5 21,1 21,5 23,3 18,9 23 12 35 19 SSW 1018,6 40 0 0,0
05.07.2020 06:00:00 21,2 12,0 20,9 21,5 23,5 18,9 21 11 32 18 SW 1018,9 57 0 0,0
05.07.2020 05:00:00 21,4 11,6 20,9 21,6 23,8 18,9 19 10 31 17 SSW 1018,8 58 0 0,0
05.07.2020 04:00:00 21,2 11,0 20,1 21,8 24,1 18,9 13 7 27 15 SSW 1018,8 63 0 0,0
05.07.2020 03:00:00 21,8 10,7 21,0 22,4 24,4 18,9 17 9 31 17 SW 1019,2 53 0 0,0
05.07.2020 02:00:00 22,0 10,7 21,0 22,9 24,7 18,9 19 10 32 17 SSW 1019,3 48 0 0,0
05.07.2020 01:00:00 22,6 10,7 22,0 23,4 25,0 18,9 16 9 32 17 SSW 1019,6 50 0 0,0
05.07.2020 00:00:00 22,7 10,7 22,0 23,7 25,4 18,9 13 7 24 13 SSW 1019,4 47 0 0,0
04.07.2020 23:00:00 22,4 11,0 21,0 24,3 25,7 18,9 12 7 20 11 SSW 1019,4 48 0 0,0
04.07.2020 22:00:00 23,0 11,1 21,9 25,6 26,1 18,9 12 7 22 12 SSW 1018,8 48 0 0,0
04.07.2020 21:00:00 23,7 10,9 22,9 27,2 26,3 18,9 13 7 28 15 SW 1018,4 55 0 0,0
04.07.2020 20:00:00 24,7 10,4 25,1 29,0 26,3 18,9 16 9 36 20 SW 1018,4 40 11 0,0
04.07.2020 19:00:00 25,2 10,2 25,8 31,6 26,1 18,9 19 10 34 18 SSW 1018,4 31 60 0,0
04.07.2020 18:00:00 25,7 10,0 27,7 33,5 25,7 18,9 21 11 32 18 SSW 1018,3 28 60 0,0
04.07.2020 17:00:00 25,5 9,1 29,5 34,0 25,1 18,9 21 11 36 19 WSW 1018,5 29 60 0,0
04.07.2020 16:00:00 25,3 7,7 30,2 34,2 24,5 18,9 21 11 36 20 SW 1018,9 30 60 0,0
04.07.2020 15:00:00 25,4 8,9 29,8 33,7 23,7 18,9 23 13 39 21 SW 1019,0 24 60 0,0
04.07.2020 14:00:00 24,9 9,1 29,3 32,8 22,9 18,9 21 11 33 18 S 1019,6 31 59 0,0
04.07.2020 13:00:00 24,2 9,3 29,3 31,0 22,1 18,9 18 10 29 16 SW 1020,2 31 59 0,0
04.07.2020 12:00:00 22,9 10,1 27,2 29,2 21,4 18,9 13 7 22 12 SW 1020,6 38 58 0,0
04.07.2020 11:00:00 21,9 11,7 26,4 26,6 20,8 18,9 9 5 16 9 SSW 1020,7 41 60 0,0
04.07.2020 10:00:00 20,4 11,3 26,2 23,5 20,5 18,9 6 3 11 6 WSW 1021,0 45 60 0,0
04.07.2020 09:00:00 19,0 10,7 22,1 20,6 20,4 18,9 5 3 11 6 SSW 1021,4 43 60 0,0
04.07.2020 08:00:00 18,3 11,1 18,9 17,8 20,7 18,9 2 1 3 2 W 1021,1 40 60 0,0
04.07.2020 07:00:00 13,3 10,0 14,3 16,1 21,0 18,9 3 1 8 5 WNW 1021,3 32 13 0,0
04.07.2020 06:00:00 10,8 9,5 8,6 16,0 21,5 18,9 4 2 5 3 N 1021,5 26 0 0,0
04.07.2020 05:00:00 11,5 10,1 8,9 16,5 21,9 18,9 3 2 5 3 N 1021,4 30 0 0,0
04.07.2020 04:00:00 11,6 10,2 8,9 17,2 22,4 18,9 5 3 8 4 NW 1021,1 35 0 0,0
04.07.2020 03:00:00 11,7 10,2 9,5 17,9 22,9 18,9 4 2 6 3 N 1021,3 34 0 0,0
04.07.2020 02:00:00 12,4 10,4 9,9 18,8 23,4 18,9 0 0 6 3 N 1021,1 34 0 0,0
04.07.2020 01:00:00 14,2 10,9 11,9 19,8 23,9 18,9 7 4 11 6 NNW 1020,8 37 0 0,0
04.07.2020 00:00:00 16,6 10,6 13,4 21,0 24,3 18,9 4 2 14 8 SE 1020,4 37 0 0,0
03.07.2020 23:00:00 18,6 10,5 15,7 22,3 24,7 18,9 8 5 11 6 S 1020,1 42 0 0,0
03.07.2020 22:00:00 18,9 11,7 15,4 24,3 25,0 18,9 3 1 5 3 NNW 1019,3 45 0 0,0
03.07.2020 21:00:00 22,1 11,2 21,9 26,0 25,2 18,9 3 2 13 7 NW 1018,7 47 9 0,0
03.07.2020 20:00:00 21,7 9,5 22,3 27,8 25,2 18,9 10 6 15 8 NNW 1018,6 50 11 0,0
03.07.2020 19:00:00 22,6 9,5 26,0 29,7 24,9 18,9 8 4 18 10 NNW 1018,2 46 33 0,0
03.07.2020 18:00:00 23,4 9,0 29,0 31,7 24,5 18,9 13 7 26 14 NNW 1018,3 35 52 0,0
03.07.2020 17:00:00 22,2 8,7 25,1 31,5 24,1 18,9 10 5 19 11 NNW 1018,4 55 29 0,0
03.07.2020 16:00:00 22,2 10,8 26,2 31,2 23,4 18,9 14 7 24 13 NNW 1018,8 46 17 0,0
03.07.2020 15:00:00 22,5 9,3 29,2 33,3 22,5 18,9 11 6 19 10 NW 1018,8 33 54 0,0
03.07.2020 14:00:00 22,0 8,1 27,8 31,1 21,7 18,9 11 6 19 10 N 1019,2 35 60 0,0
03.07.2020 13:00:00 21,8 9,7 28,8 26,6 21,3 18,9 7 4 13 7 NW 1019,6 52 16 0,0
03.07.2020 12:00:00 20,2 8,7 24,8 24,1 21,0 18,9 9 5 16 9 NNW 1019,8 44 1 0,0
03.07.2020 11:00:00 19,3 9,9 21,5 22,5 20,7 18,9 9 5 21 11 NNW 1019,8 48 6 0,0
03.07.2020 10:00:00 18,9 11,1 21,9 22,4 20,5 18,9 8 4 19 10 NNW 1019,6 43 46 0,0
03.07.2020 09:00:00 18,7 11,7 22,9 20,7 20,4 18,9 7 4 15 8 N 1019,2 39 60 0,0
03.07.2020 08:00:00 18,2 11,5 20,3 19,0 20,5 18,9 4 2 7 4 N 1019,1 43 52 0,0
03.07.2020 07:00:00 15,5 13,2 15,1 17,8 20,7 18,8 4 2 6 3 N 1019,1 40 0 0,0
03.07.2020 06:00:00 15,4 13,2 14,6 17,8 20,9 18,8 3 2 5 3 N 1018,7 43 0 0,0
03.07.2020 05:00:00 16,0 13,6 14,9 18,0 21,2 18,8 4 2 5 3 NE 1018,2 41 0 0,0
03.07.2020 04:00:00 15,8 13,0 13,5 18,4 21,4 18,8 3 2 6 4 N 1017,9 53 0 0,0
03.07.2020 03:00:00 16,8 12,7 15,7 18,9 21,6 18,8 4 2 7 4 WNW 1017,7 54 0 0,0
03.07.2020 02:00:00 17,9 12,0 16,4 19,2 21,8 18,8 5 3 9 5 NNW 1017,3 64 0 0,0
03.07.2020 01:00:00 17,6 14,1 16,6 19,6 22,0 18,8 3 1 8 5 NNW 1017,3 53 0 0,0
03.07.2020 00:00:00 18,8 13,4 16,6 20,0 22,2 18,8 4 2 10 6 ENE 1016,7 49 0 0,0
02.07.2020 23:00:00 18,5 14,3 17,8 20,4 22,5 18,8 5 3 9 5 NNE 1016,0 50 0 0,0
02.07.2020 22:00:00 20,3 13,7 18,4 20,9 22,6 18,8 4 2 7 4 SE 1014,9 49 0 0,0
02.07.2020 21:00:00 19,7 14,2 18,6 21,7 22,8 18,8 5 3 6 4 NW 1014,6 54 9 0,0
02.07.2020 20:00:00 21,5 12,9 21,0 22,3 22,9 18,8 4 2 14 8 NNW 1014,2 54 3 0,0
02.07.2020 19:00:00 21,6 12,5 21,4 23,0 22,9 18,8 8 5 16 9 NW 1013,7 61 5 0,0
02.07.2020 18:00:00 22,2 12,0 22,9 23,6 22,8 18,8 13 7 28 15 NNW 1013,2 56 3 0,0
02.07.2020 17:00:00 22,8 12,9 23,6 25,4 22,7 18,8 12 7 27 15 WSW 1013,2 52 38 0,0
02.07.2020 16:00:00 21,5 14,3 22,7 22,5 22,8 18,8 17 9 41 22 SW 1013,7 42 1 0,0
02.07.2020 15:00:00 20,7 14,9 20,6 22,1 22,9 18,8 20 11 31 17 SSW 1014,0 46 0 0,0
02.07.2020 14:00:00 21,4 15,3 21,4 23,3 22,8 18,7 13 7 26 14 SW 1013,8 47 0 0,0
02.07.2020 13:00:00 22,1 16,9 25,1 23,9 22,8 18,7 14 8 28 15 SW 1013,5 47 2 0,0
02.07.2020 12:00:00 21,1 17,0 22,5 23,8 22,7 18,7 17 9 25 13 SSW 1013,4 40 1 0,0
02.07.2020 11:00:00 20,3 17,9 20,3 22,8 22,7 18,7 15 8 22 12 SSW 1013,4 19 0 0,1
02.07.2020 10:00:00 20,5 17,5 22,1 22,6 22,7 18,7 9 5 18 10 SW 1013,1 37 0 0,0
02.07.2020 09:00:00 19,6 17,6 19,5 21,5 22,9 18,7 10 5 18 10 SW 1013,3 26 0 0,0

tt = Température de l'air
td = dewpoint
tt 5cm = Température de l'air 5cm
tt -5cm = Température de l'air -5cm
tt -20cm = Température de l'air -20cm
tt -100cm = Température de l'air -100cm
ff = Vitesse du vent
fx = gusts
dd = Direction du vent
ppp = reduced air pressure
vv = visibility
sd = Ensoleillement
rr = Quantités de précipitations

stations d'obs. à proximité